Location: Asheville, NC
(35.6000°N, 82.5500°W)
Time: 06:32:10

FO-29 - Pass Details

Date: 17 March 2018
Orbit: 800 x 1321 km, 98.5° (Epoch: 16 March)

Event Time Altitude Azimuth Distance (km) Brightness Sun altitude
Rises 21:52:01 0° 6° (N) 4,102 12.9 -27.3°
Reaches altitude 10° 21:54:38 10° 2° (N) 3,192 12.4 -27.8°
Maximum altitude 22:01:48 52° 289° (WNW) 1,564 10.8 -29.1°
Drops below altitude 10° 22:09:20 10° 216° (SW) 3,339 12.4 -30.5°
Sets 22:12:08 0° 211° (SSW) 4,304 12.9 -31.0°
